Terug naar catalogus

THOR ABLESTAR DEB

ActiefLEO
NORAD 545·DEBRIS·🇺🇸 United States

Gelanceerd Jun 29, 1961 vanaf Cape Canaveral Space Force Station

Loading…

Volgende Passages (komende 24 uur)

TLE

VersSource: Space-Track

Epoch: Sep 13, 2026, 20:46 UTC

1 00545U 61015GE  26256.86537783  .00000160  00000-0  23471-3 0  9992
2 00545  67.2308  68.7926 0158090 338.7986  20.6580 13.71131107242449

Volg THOR ABLESTAR DEB in realtime met AllMySat

Download on the App Store